Change the Weather History Date:

Friday, November 23, 2012

  Actual Average Record
Temperature  
Mean Temperature 49 °F -  
Max Temperature 68 °F 61 °F 81 °F (1992)
Min Temperature 30 °F 41 °F 23 °F (1976)
Degree Days  
Heating Degree Days 16    
Moisture  
Dew Point 35 °F    
Average Humidity 76    
Maximum Humidity 100    
Minimum Humidity 26    
Precipitation  
Precipitation 0.00 in - - ()
Sea Level Pressure  
Sea Level Pressure 30.03 in    
Wind  
Wind Speed 2 mph (SW)    
Max Wind Speed 10 mph    
Max Gust Speed -    
Visibility 10 miles    
Events      
Averages and records for this station are not official NWS values.
T = Trace of Precipitation, MM = Missing Value Source: NWS Daily Summary

Daily Weather History Graph

Daily Weather History Graph

Search for Another Location

Airport or City:

Trip Planner

Search our weather history database for the weather conditions in past years. The results will help you decide how hot, cold, wet, or windy it might be!

Date:

Astronomy

Nov. 23, 2012 Rise Set
Actual Time 6:53 AM EST 4:59 PM EST
Civil Twilight 6:26 AM EST 5:27 PM EST
Nautical Twilight 5:55 AM EST 5:58 PM EST
Astronomical Twilight 5:24 AM EST 6:28 PM EST
Moon 2:05 PM EST (11/23) 2:19 AM EST (11/23)
Length of Visible Light 11h 01m
Length of Day
10h 06m
Waxing Gibbous, 79% of the Moon is Illuminated
Nov 23
Waxing Gibbous
Nov 28
Full
Dec 6
Last Quarter
Dec 13
New
Dec 20
First Quarter

Hourly Weather History & Observations

Time (EST) Temp. Dew Point Humidity Pressure Visibility Wind Dir Wind Speed Gust Speed Precip Events Conditions
12:15 AM 35.6 °F 33.8 °F 93% 30.17 in 10.0 mi Calm Calm - N/A   Clear
12:35 AM 35.6 °F 33.8 °F 93% 30.16 in 10.0 mi Calm Calm - N/A   Clear
12:55 AM 33.8 °F 32.0 °F 93% 30.16 in 10.0 mi Calm Calm - N/A   Clear
1:15 AM 33.8 °F 32.0 °F 93% 30.15 in 10.0 mi Calm Calm - N/A   Clear
1:35 AM 33.8 °F 32.0 °F 93% 30.15 in 10.0 mi Calm Calm - N/A   Clear
1:55 AM 32.0 °F 32.0 °F 100% 30.15 in 10.0 mi Calm Calm - N/A   Clear
2:15 AM 32.0 °F 32.0 °F 100% 30.15 in 10.0 mi Calm Calm - N/A   Clear
2:35 AM 32.0 °F 32.0 °F 100% 30.14 in 10.0 mi Calm Calm - N/A   Clear
2:55 AM 32.0 °F 32.0 °F 100% 30.14 in 10.0 mi Calm Calm - N/A   Clear
3:15 AM 32.0 °F 32.0 °F 100% 30.14 in 10.0 mi Calm Calm - N/A   Clear
3:35 AM 32.0 °F 32.0 °F 100% 30.13 in 10.0 mi Calm Calm - N/A   Clear
3:55 AM 32.0 °F 32.0 °F 100% 30.13 in 10.0 mi Calm Calm - N/A   Clear
4:15 AM 32.0 °F 30.2 °F 93% 30.13 in 10.0 mi Calm Calm - N/A   Clear
4:35 AM 32.0 °F 30.2 °F 93% 30.13 in 10.0 mi Calm Calm - N/A   Clear
4:55 AM 32.0 °F 30.2 °F 93% 30.13 in 10.0 mi Calm Calm - N/A   Clear
5:15 AM 32.0 °F 30.2 °F 93% 30.13 in 10.0 mi Calm Calm - N/A   Clear
5:35 AM 32.0 °F 30.2 °F 93% 30.14 in 10.0 mi Calm Calm - N/A   Clear
5:55 AM 32.0 °F 30.2 °F 93% 30.14 in 10.0 mi Calm Calm - N/A   Clear
6:56 AM 30.2 °F 28.4 °F 93% 30.14 in 10.0 mi Calm Calm - N/A   Clear
7:56 AM 33.8 °F 33.8 °F 100% 30.14 in 10.0 mi Calm Calm - N/A   Clear
8:56 AM 42.8 °F 37.4 °F 81% 30.14 in 10.0 mi Calm Calm - N/A   Clear
9:56 AM 53.6 °F 39.2 °F 58% 30.11 in 10.0 mi Calm Calm - N/A   Clear
10:56 AM 57.2 °F 33.8 °F 41% 30.09 in 10.0 mi WSW 4.6 mph - N/A   Clear
11:56 AM 60.8 °F 30.2 °F 31% 30.04 in 10.0 mi South 3.5 mph - N/A   Clear
1:56 PM 66.2 °F 30.2 °F 26% 29.97 in 10.0 mi WSW 6.9 mph - N/A   Clear
2:56 PM 68.0 °F 32.0 °F 26% 29.95 in 10.0 mi SW 10.4 mph - N/A   Clear
3:56 PM 64.4 °F 33.8 °F 32% 29.93 in 10.0 mi SW 4.6 mph - N/A   Clear
4:56 PM 59.0 °F 37.4 °F 45% 29.91 in 10.0 mi SSW 4.6 mph - N/A   Clear
5:56 PM 50.0 °F 39.2 °F 66% 29.91 in 10.0 mi SSW 6.9 mph - N/A   Clear
6:56 PM 53.6 °F 39.2 °F 58% 29.92 in 10.0 mi SSW 5.8 mph - N/A   Clear
7:56 PM 53.6 °F 39.2 °F 58% 29.91 in 10.0 mi SSW 5.8 mph - N/A   Clear
8:15 PM 51.8 °F 39.2 °F 62% 29.91 in 10.0 mi SSW 4.6 mph - N/A   Clear
8:35 PM 50.0 °F 39.2 °F 66% 29.91 in 10.0 mi SSW 4.6 mph - N/A   Clear
8:55 PM 50.0 °F 41.0 °F 71% 29.90 in 10.0 mi SSW 3.5 mph - N/A   Clear
8:56 PM 51.8 °F 41.0 °F 67% 29.90 in 10.0 mi SSW 4.6 mph - N/A   Clear
9:15 PM 51.8 °F 41.0 °F 67% 29.90 in 10.0 mi SSW 5.8 mph - N/A   Clear
9:35 PM 50.0 °F 41.0 °F 71% 29.89 in 10.0 mi SSW 5.8 mph - N/A   Clear
9:55 PM 50.0 °F 41.0 °F 71% 29.89 in 10.0 mi SW 6.9 mph - N/A   Clear
10:15 PM 50.0 °F 41.0 °F 71% 29.88 in 10.0 mi SW 6.9 mph - N/A   Clear
10:35 PM 51.8 °F 41.0 °F 67% 29.88 in 10.0 mi SW 6.9 mph - N/A   Clear
10:55 PM 51.8 °F 41.0 °F 67% 29.87 in 10.0 mi SW 6.9 mph - N/A   Clear
11:15 PM 51.8 °F 42.8 °F 71% 29.88 in 10.0 mi SW 8.1 mph - N/A   Clear
11:35 PM 51.8 °F 42.8 °F 71% 29.87 in 10.0 mi WSW 5.8 mph - N/A   Clear
11:55 PM 51.8 °F 41.0 °F 67% 29.88 in 10.0 mi WSW 6.9 mph - N/A   Clear